User: anonymous   Login
Location: Melbourne
(37.8170°S, 144.9670°E)
Time: 16:46:11
(UTC+11:00)
Language:

CZ-3 R/B - Orbit

View from above orbital plane
View from above orbital plane
View from above satellite
View from above satellite

Ground track
Ground track

The orbit data is extracted from the following two-line orbital elements,

1 29517U 06048B   15026.45320101  .00089112 -31785-7  13349-2 0  6411
2 29517 028.5355 344.9098 5155612 345.5171 239.6222 05.49864819111690
Epoch (UTC): 26 January 2015 10:52:36
Eccentricity: 0.5155612
inclination: 28.5355°
perigee height: 190 km
apogee height: 14171 km
right ascension of ascending node: 344.9098°
argument of perigee: 345.5171°
revolutions per day: 5.49864819
mean anomaly at epoch: 239.6222°
orbit number at epoch: 11169

The dashed part of the orbit path shows where the satellite is in the earth's shadow,  

DLR